When you browse on this site, cookies collect data to enhance your experience and personalize the content and advertising you see.
Visit our Privacy Policy to learn more. By continuing to use the site, you agree to this use of cookies and data.
  • In Spain
  • List of Countries
  • For 7 days
  • Water Temperature
  • Satellite Maps
  • Weather Map
  • Weather Widgets
  • user-avatar
    Login

    Hourly Weather Benito Juarez

    Today, 25 April, Thursday

    Time Temperature Precipitation Wind Pressure Humidity
    00:00 +17°C° 0 mm 3 mps 582 mmHg 40%
    01:00 +17°C° 0 mm 3 mps 582 mmHg 40%
    02:00 +17°C° 0 mm 3 mps 582 mmHg 40%
    03:00 +16°C° 0 mm 2 mps 582 mmHg 42%
    04:00 +15°C° 0 mm 2 mps 582 mmHg 44%
    05:00 +15°C° 0 mm 2 mps 582 mmHg 40%
    06:00 +17°C° 0 mm 2 mps 584 mmHg 41%
    07:00 +19°C° 0 mm 1 mps 585 mmHg 42%
    08:00 +21°C° 0 mm 1 mps 586 mmHg 43%
    09:00 +22°C° 0 mm 1 mps 587 mmHg 44%
    10:00 +23°C° 0 mm 2 mps 587 mmHg 45%
    11:00 +24°C° 0 mm 2 mps 587 mmHg 46%
    12:00 +23°C° 0.1 mm 2 mps 587 mmHg 53%
    13:00 +22°C° 0.1 mm 3 mps 586 mmHg 59%
    14:00 +21°C° 0.1 mm 3 mps 585 mmHg 66%
    15:00 +19°C° 0.5 mm 3 mps 585 mmHg 74%
    16:00 +18°C° 0.5 mm 3 mps 584 mmHg 81%
    17:00 +17°C° 0.5 mm 2 mps 584 mmHg 89%
    18:00 +16°C° 0.4 mm 2 mps 584 mmHg 90%
    19:00 +16°C° 0.4 mm 1 mps 584 mmHg 91%
    20:00 +15°C° 0.4 mm 1 mps 585 mmHg 92%
    21:00 +15°C° 0.1 mm 1 mps 585 mmHg 92%
    22:00 +14°C° 0.1 mm 1 mps 585 mmHg 93%
    23:00 +14°C° 0.1 mm 1 mps 585 mmHg 93%

    Tomorrow, 26 April, Friday

    Time Temperature Precipitation Wind Pressure Humidity
    00:00 +14°C° 0 mm 1 mps 585 mmHg 92%
    01:00 +13°C° 0 mm 1 mps 585 mmHg 90%
    02:00 +13°C° 0 mm 1 mps 584 mmHg 89%
    03:00 +12°C° 0 mm 1 mps 584 mmHg 88%
    04:00 +12°C° 0 mm 1 mps 584 mmHg 87%
    05:00 +12°C° 0 mm 1 mps 584 mmHg 86%
    06:00 +14°C° 0 mm 1 mps 586 mmHg 78%
    07:00 +15°C° 0 mm 1 mps 587 mmHg 71%
    08:00 +17°C° 0 mm 2 mps 588 mmHg 63%
    09:00 +18°C° 0 mm 2 mps 588 mmHg 58%
    10:00 +19°C° 0 mm 3 mps 589 mmHg 53%
    11:00 +21°C° 0 mm 3 mps 589 mmHg 47%
    12:00 +20°C° 0 mm 3 mps 588 mmHg 51%
    13:00 +20°C° 0 mm 3 mps 588 mmHg 54%
    14:00 +19°C° 0 mm 3 mps 587 mmHg 58%
    15:00 +18°C° 0.1 mm 3 mps 586 mmHg 67%
    16:00 +16°C° 0.1 mm 3 mps 585 mmHg 77%
    17:00 +15°C° 0.1 mm 2 mps 585 mmHg 86%
    18:00 +14°C° 0.2 mm 2 mps 585 mmHg 87%
    19:00 +14°C° 0.2 mm 1 mps 585 mmHg 88%
    20:00 +13°C° 0.2 mm 0 mps 586 mmHg 89%
    21:00 +12°C° 0.1 mm 0 mps 586 mmHg 90%
    22:00 +12°C° 0.1 mm 0 mps 586 mmHg 91%
    23:00 +12°C° 0.1 mm 0 mps 585 mmHg 91%

    Day after tomorrow, 27 April, Saturday

    Time Temperature Precipitation Wind Pressure Humidity
    00:00 +11°C° 0 mm 0 mps 585 mmHg 91%
    01:00 +11°C° 0 mm 0 mps 584 mmHg 91%
    02:00 +11°C° 0 mm 0 mps 584 mmHg 90%
    03:00 +11°C° 0 mm 0 mps 584 mmHg 89%
    04:00 +11°C° 0 mm 0 mps 584 mmHg 88%
    05:00 +11°C° 0 mm 0 mps 584 mmHg 87%
    06:00 +14°C° 0 mm 1 mps 585 mmHg 76%
    07:00 +18°C° 0 mm 1 mps 587 mmHg 66%
    08:00 +21°C° 0 mm 1 mps 588 mmHg 55%
    09:00 +22°C° 0 mm 1 mps 588 mmHg 52%
    10:00 +23°C° 0 mm 2 mps 588 mmHg 50%
    11:00 +24°C° 0 mm 2 mps 588 mmHg 47%
    12:00 +22°C° 1 mm 3 mps 587 mmHg 51%
    13:00 +22°C° 1 mm 3 mps 586 mmHg 55%
    14:00 +21°C° 1 mm 3 mps 585 mmHg 58%
    15:00 +20°C° 0.8 mm 2 mps 585 mmHg 62%
    16:00 +19°C° 0.8 mm 2 mps 584 mmHg 65%
    17:00 +19°C° 0.8 mm 1 mps 583 mmHg 68%
    18:00 +19°C° 0.1 mm 1 mps 584 mmHg 69%
    19:00 +18°C° 0.1 mm 1 mps 584 mmHg 70%
    20:00 +16°C° 0.1 mm 1 mps 584 mmHg 71%
    21:00 +16°C° 0.1 mm 1 mps 584 mmHg 70%
    22:00 +16°C° 0.1 mm 1 mps 584 mmHg 69%
    23:00 +16°C° 0.1 mm 1 mps 584 mmHg 67%

    28 April, Sunday

    Time Temperature Precipitation Wind Pressure Humidity
    00:00 +16°C° 0 mm 1 mps 584 mmHg 68%
    01:00 +16°C° 0 mm 1 mps 583 mmHg 68%
    02:00 +15°C° 0 mm 1 mps 583 mmHg 68%
    03:00 +15°C° 0.1 mm 1 mps 583 mmHg 70%
    04:00 +15°C° 0.1 mm 2 mps 583 mmHg 71%
    05:00 +15°C° 0.1 mm 2 mps 583 mmHg 73%
    06:00 +18°C° 0 mm 1 mps 584 mmHg 65%
    07:00 +20°C° 0 mm 1 mps 586 mmHg 57%
    08:00 +23°C° 0 mm 1 mps 587 mmHg 50%
    09:00 +24°C° 0 mm 1 mps 588 mmHg 48%
    10:00 +24°C° 0 mm 2 mps 588 mmHg 47%
    11:00 +25°C° 0 mm 2 mps 588 mmHg 46%
    12:00 +24°C° 2 mm 2 mps 587 mmHg 51%
    13:00 +23°C° 2 mm 2 mps 585 mmHg 56%
    14:00 +21°C° 2 mm 2 mps 584 mmHg 61%
    15:00 +20°C° 1.2 mm 2 mps 584 mmHg 65%
    16:00 +21°C° 1.2 mm 1 mps 584 mmHg 68%
    17:00 +20°C° 1.2 mm 1 mps 583 mmHg 72%
    18:00 +19°C° 0.1 mm 1 mps 584 mmHg 72%
    19:00 +18°C° 0.1 mm 1 mps 584 mmHg 73%
    20:00 +16°C° 0.1 mm 1 mps 584 mmHg 73%
    21:00 +16°C° 0.1 mm 1 mps 584 mmHg 71%
    22:00 +16°C° 0.1 mm 1 mps 584 mmHg 68%
    23:00 +16°C° 0.1 mm 1 mps 584 mmHg 66%

    29 April, Monday

    Time Temperature Precipitation Wind Pressure Humidity
    00:00 +16°C° 0 mm 1 mps 584 mmHg 65%
    01:00 +15°C° 0 mm 1 mps 583 mmHg 65%
    02:00 +15°C° 0 mm 1 mps 583 mmHg 64%
    03:00 +14°C° 0 mm 1 mps 583 mmHg 65%
    04:00 +14°C° 0 mm 1 mps 583 mmHg 66%
    05:00 +14°C° 0 mm 1 mps 583 mmHg 67%
    06:00 +16°C° 0 mm 1 mps 584 mmHg 61%
    07:00 +20°C° 0 mm 1 mps 586 mmHg 56%
    08:00 +22°C° 0 mm 1 mps 588 mmHg 51%
    09:00 +24°C° 0 mm 1 mps 588 mmHg 48%
    10:00 +25°C° 0 mm 2 mps 588 mmHg 46%
    11:00 +26°C° 0 mm 2 mps 588 mmHg 43%
    12:00 +25°C° 1.4 mm 2 mps 587 mmHg 49%
    13:00 +24°C° 1.4 mm 2 mps 586 mmHg 56%
    14:00 +22°C° 1.4 mm 3 mps 585 mmHg 62%
    15:00 +21°C° 2.9 mm 2 mps 584 mmHg 68%
    16:00 +21°C° 2.9 mm 1 mps 584 mmHg 74%
    17:00 +20°C° 2.9 mm 1 mps 584 mmHg 80%
    18:00 +19°C° 0.7 mm 1 mps 584 mmHg 79%
    19:00 +18°C° 0.7 mm 1 mps 584 mmHg 77%
    20:00 +17°C° 0.7 mm 2 mps 585 mmHg 76%
    21:00 +16°C° 0.1 mm 2 mps 585 mmHg 75%
    22:00 +16°C° 0.1 mm 2 mps 584 mmHg 73%
    23:00 +15°C° 0.1 mm 2 mps 584 mmHg 72%

    30 April, Tuesday

    Time Temperature Precipitation Wind Pressure Humidity
    00:00 +15°C° 0 mm 2 mps 584 mmHg 71%
    01:00 +16°C° 0 mm 1 mps 584 mmHg 71%
    02:00 +16°C° 0 mm 1 mps 583 mmHg 70%
    03:00 +15°C° 0 mm 1 mps 583 mmHg 71%
    04:00 +15°C° 0 mm 1 mps 583 mmHg 73%
    05:00 +14°C° 0 mm 1 mps 583 mmHg 75%
    06:00 +18°C° 0 mm 1 mps 585 mmHg 67%
    07:00 +20°C° 0 mm 1 mps 586 mmHg 60%
    08:00 +21°C° 0 mm 0 mps 588 mmHg 53%
    09:00 +24°C° 0.3 mm 1 mps 588 mmHg 52%
    10:00 +25°C° 0.3 mm 2 mps 588 mmHg 51%
    11:00 +25°C° 0.3 mm 2 mps 588 mmHg 50%
    12:00 +25°C° 1.4 mm 3 mps 587 mmHg 53%
    13:00 +25°C° 1.4 mm 3 mps 586 mmHg 56%
    14:00 +24°C° 1.4 mm 3 mps 585 mmHg 59%
    15:00 +23°C° 2.8 mm 2 mps 585 mmHg 66%
    16:00 +21°C° 2.8 mm 1 mps 584 mmHg 73%
    17:00 +20°C° 2.8 mm 1 mps 584 mmHg 80%
    18:00 +19°C° 0.3 mm 1 mps 584 mmHg 78%
    19:00 +18°C° 0.3 mm 1 mps 584 mmHg 77%
    20:00 +18°C° 0.3 mm 1 mps 585 mmHg 75%
    21:00 +16°C° 0 mm 1 mps 584 mmHg 73%
    22:00 +16°C° 0 mm 1 mps 584 mmHg 71%
    23:00 +16°C° 0 mm 1 mps 584 mmHg 69%
    Show more